DO5DHA-11 Weather Reports


time (UTC)temp
C
wind
direction
speed
KPH
gust
KPH
rain 1hr
cm
rain 24hr
cm
rain mn
cm
humidity
%
barometer
mb
20260506014405 12 157 0.0 0.0 0.00 0.00 0.00 82 1005.2
20260506013905 12 157 0.0 0.0 0.00 0.00 0.00 82 1005.2
20260506013405 12 157 0.0 0.0 0.00 0.00 0.00 82 1005.4
20260506012905 12 157 0.0 0.0 0.00 0.00 0.00 82 1005.5
20260506012405 12 157 0.0 0.0 0.00 0.00 0.00 81 1005.5
20260506011905 12 157 0.0 0.0 0.00 0.00 0.00 81 1005.5
20260506011405 12 157 0.0 0.0 0.00 0.00 0.00 81 1005.5
20260506010905 12 157 0.0 0.0 0.00 0.00 0.00 81 1005.5
20260506010405 12 157 0.0 0.0 0.00 0.00 0.00 81 1005.7
20260506005905 12 157 0.0 0.0 0.00 0.00 0.00 81 1005.5
20260506005405 12 157 0.0 0.0 0.00 0.00 0.00 81 1005.5
20260506004905 13 157 0.0 0.0 0.00 0.00 0.00 81 1005.7
20260506004405 13 157 0.0 0.0 0.00 0.00 0.00 81 1005.7
20260506003905 13 157 0.0 0.0 0.00 0.00 0.00 81 1005.7
20260506003405 13 157 0.0 0.0 0.00 0.00 0.00 81 1005.9
20260506002905 13 157 0.0 0.0 0.00 0.00 0.00 81 1006.0
20260506002405 13 157 0.0 0.0 0.00 0.00 0.00 81 1006.0
20260506001905 13 157 0.0 0.0 0.00 0.00 0.00 80 1006.0
20260506001405 13 157 0.0 0.0 0.00 0.00 0.00 81 1006.0
20260506000905 13 202 0.0 0.0 0.00 0.00 0.00 81 1006.0
20260506000405 13 180 0.0 0.0 0.00 0.00 0.00 81 1006.0
20260505235905 13 180 0.0 0.0 0.00 0.00 0.00 81 1006.0
20260505235405 13 180 0.0 0.0 0.00 0.00 0.00 81 1006.0
20260505234905 13 180 0.0 0.0 0.00 0.00 0.00 80 1006.0
20260505234405 13 180 0.0 0.0 0.00 0.00 0.00 80 1006.0
20260505233905 13 180 0.0 0.0 0.00 0.00 0.00 80 1006.0
20260505233405 13 180 0.0 0.0 0.00 0.00 0.00 80 1006.0
20260505232905 13 180 0.0 0.0 0.00 0.00 0.00 80 1006.2
20260505232405 13 180 0.0 0.0 0.00 0.00 0.00 80 1006.2
20260505231905 13 180 0.0 0.0 0.00 0.00 0.00 80 1006.4
20260505231405 13 180 0.0 0.0 0.00 0.00 0.00 80 1006.4
20260505230905 13 180 0.0 0.0 0.00 0.00 0.00 80 1006.5
20260505230405 13 180 0.0 0.0 0.00 0.00 0.00 80 1006.4
20260505225905 13 180 0.0 0.0 0.00 0.00 0.00 80 1006.4
20260505225405 13 180 0.0 0.0 0.00 0.00 0.00 81 1006.4
20260505224905 13 180 0.0 0.0 0.00 0.00 0.00 81 1006.4
20260505224405 13 180 0.0 0.0 0.00 0.00 0.00 81 1006.4
20260505223905 13 202 0.0 0.0 0.00 0.00 0.00 80 1006.4
20260505223405 13 202 0.0 0.0 0.00 0.00 0.00 80 1006.4
20260505222905 13 180 0.0 0.0 0.00 0.00 0.00 80 1006.4
20260505222405 13 180 0.0 0.0 0.00 0.00 0.00 80 1006.2
20260505221905 13 202 0.0 0.0 0.00 0.00 0.00 80 1006.2
20260505221405 13 180 11.3 0.0 0.00 0.00 0.00 80 1006.2
20260505220905 13 180 0.0 0.0 0.00 0.00 0.00 80 1006.0
20260505220405 13 180 0.0 0.0 0.00 0.00 0.00 80 1006.0
20260505215905 13 180 0.0 0.0 0.00 0.00 0.00 80 1006.0
20260505215405 13 180 0.0 0.0 0.00 0.00 0.00 80 1006.4
20260505214905 13 157 0.0 0.0 0.00 0.00 0.00 80 1006.4
20260505214405 13 180 0.0 0.0 0.00 0.00 0.00 80 1006.2
20260505213905 13 180 0.0 0.0 0.00 0.00 0.00 80 1006.2
20260505213405 14 202 0.0 0.0 0.00 0.00 0.00 80 1006.2
20260505212905 14 180 0.0 0.0 0.00 0.00 0.00 80 1006.2
20260505212405 14 180 0.0 0.0 0.00 0.00 0.00 80 1006.2
20260505211905 14 180 0.0 0.0 0.00 0.00 0.00 80 1006.0
20260505211405 14 202 0.0 0.0 0.00 0.00 0.00 80 1006.0
20260505210905 14 202 0.0 0.0 0.00 0.00 0.00 80 1006.0
20260505210405 14 180 0.0 0.0 0.00 0.00 0.00 80 1006.4
20260505205905 14 180 0.0 0.0 0.00 0.00 0.00 80 1006.4
20260505205405 14 180 0.0 0.0 0.00 0.00 0.00 80 1006.4
20260505204905 14 202 0.0 0.0 0.00 0.00 0.00 80 1006.4
20260505204405 15 202 0.0 0.0 0.00 0.00 0.00 80 1006.4
20260505203905 15 202 0.0 0.0 0.00 0.00 0.00 80 1006.2
20260505203405 15 202 0.0 0.0 0.00 0.00 0.00 80 1006.2
20260505202905 15 202 0.0 0.0 0.00 0.00 0.00 80 1006.2
20260505202405 15 202 0.0 0.0 0.00 0.00 0.00 80 1006.2
20260505201905 15 202 0.0 0.0 0.00 0.00 0.00 80 1006.2
20260505201405 15 202 0.0 0.0 0.00 0.00 0.00 80 1006.2
20260505200905 15 202 0.0 0.0 0.00 0.00 0.00 79 1006.2
20260505200405 15 202 0.0 0.0 0.00 0.00 0.00 79 1006.0
20260505195905 15 202 0.0 0.0 0.00 0.00 0.00 79 1006.2
20260505195405 15 202 0.0 0.0 0.00 0.00 0.00 79 1006.0
20260505194905 15 202 0.0 0.0 0.00 0.00 0.00 79 1006.0
20260505194405 15 202 0.0 0.0 0.00 0.00 0.00 78 1006.0
20260505193905 15 202 0.0 0.0 0.00 0.00 0.00 78 1005.9
20260505193405 15 202 0.0 0.0 0.00 0.00 0.00 78 1005.7
20260505192905 15 202 0.0 0.0 0.00 0.00 0.00 78 1005.7
20260505192405 15 202 0.0 0.0 0.00 0.00 0.00 78 1006.0
20260505191905 15 202 0.0 0.0 0.00 0.00 0.00 78 1006.0
20260505191405 15 202 0.0 0.0 0.00 0.00 0.00 77 1005.9
20260505190905 15 202 0.0 0.0 0.00 0.00 0.00 76 1005.9
20260505190405 15 202 0.0 0.0 0.00 0.00 0.00 76 1005.9
20260505185905 15 202 0.0 0.0 0.00 0.00 0.00 76 1005.7
20260505185405 15 202 0.0 0.0 0.00 0.00 0.00 76 1005.7
20260505184905 15 202 0.0 0.0 0.00 0.00 0.00 75 1005.5
20260505184405 15 202 0.0 0.0 0.00 0.00 0.00 75 1005.5
20260505183905 15 202 0.0 0.0 0.00 0.00 0.00 75 1005.5
20260505183405 16 202 0.0 0.0 0.00 0.00 0.00 74 1005.9
20260505182905 16 202 0.0 0.0 0.00 0.00 0.00 74 1005.7
20260505182405 16 202 0.0 0.0 0.00 0.00 0.00 73 1005.7
20260505181905 16 202 0.0 0.0 0.00 0.00 0.00 73 1005.7
20260505181405 16 202 0.0 0.0 0.00 0.00 0.00 72 1005.7
20260505180905 16 202 0.0 0.0 0.00 0.00 0.00 72 1005.5
20260505180405 16 202 0.0 0.0 0.00 0.00 0.00 71 1005.5
20260505175905 16 202 0.0 0.0 0.00 0.00 0.00 72 1005.5
20260505175405 16 202 0.0 0.0 0.00 0.00 0.00 71 1005.5
20260505174905 16 202 0.0 0.0 0.00 0.00 0.00 71 1005.5
20260505174405 17 225 0.0 0.0 0.00 0.00 0.00 70 1005.5
20260505173905 17 225 0.0 0.0 0.00 0.00 0.00 70 1005.5
20260505173405 17 225 0.0 0.0 0.00 0.00 0.00 70 1005.4
20260505172905 17 225 0.0 0.0 0.00 0.00 0.00 70 1005.5
20260505172405 17 225 0.0 0.0 0.00 0.00 0.00 69 1005.5
20260505171905 17 157 0.0 0.0 0.00 0.00 0.00 69 1005.4
20260505171405 17 157 0.0 0.0 0.00 0.00 0.00 69 1005.5
20260505170905 17 157 0.0 0.0 0.00 0.00 0.00 69 1005.5
20260505170405 17 157 0.0 0.0 0.00 0.00 0.00 68 1005.5
20260505165905 17 157 0.0 0.0 0.00 0.00 0.00 68 1005.5
20260505165405 17 157 0.0 0.0 0.00 0.00 0.00 68 1005.5
20260505164905 17 157 0.0 0.0 0.00 0.00 0.00 68 1005.5
20260505164405 17 157 0.0 0.0 0.00 0.00 0.00 68 1005.5
20260505163905 17 157 0.0 0.0 0.00 0.00 0.00 68 1005.7
20260505163405 17 157 0.0 0.0 0.00 0.00 0.00 68 1005.7
20260505162905 17 157 0.0 0.0 0.00 0.00 0.00 68 1005.7
20260505162405 17 157 0.0 0.0 0.00 0.00 0.00 68 1005.7
20260505161905 17 157 0.0 0.0 0.00 0.00 0.00 68 1005.7
20260505161405 17 157 0.0 0.0 0.00 0.00 0.00 69 1005.9
20260505160905 17 157 0.0 0.0 0.00 0.00 0.00 69 1005.7
20260505160405 17 157 0.0 0.0 0.00 0.00 0.00 70 1005.9
20260505152905 17 180 0.0 0.0 0.00 0.00 0.00 71 1005.7
20260505152405 17 180 0.0 0.0 0.00 0.00 0.00 71 1006.0
20260505151905 17 180 0.0 0.0 0.00 0.00 0.00 72 1005.9
20260505151405 17 180 0.0 0.0 0.00 0.00 0.00 72 1006.0
20260505150905 17 180 0.0 0.0 0.00 0.00 0.00 71 1006.0
20260505150405 17 180 0.0 0.0 0.00 0.00 0.00 71 1006.0
20260505140405 17 180 0.0 0.0 0.00 0.00 0.00 71 1006.7
20260505124905 17 202 0.0 0.0 0.00 0.00 0.00 66 1006.9
20260505124405 17 157 0.0 0.0 0.00 0.00 0.00 65 1006.9
20260505123905 17 225 0.0 0.0 0.00 0.00 0.00 65 1006.7
20260505123405 17 202 0.0 0.0 0.00 0.00 0.00 65 1007.0
20260505122905 17 202 0.0 0.0 0.00 0.00 0.00 65 1007.0
20260505122405 17 202 0.0 0.0 0.00 0.00 0.00 64 1007.0
20260505121905 17 180 0.0 0.0 0.00 0.00 0.00 64 1006.9
20260505121405 18 180 0.0 0.0 0.00 0.00 0.00 64 1006.9
20260505120905 18 180 0.0 0.0 0.00 0.00 0.00 63 1007.0
20260505120405 18 180 0.0 0.0 0.00 0.00 0.00 63 1006.9
20260505115905 18 202 0.0 0.0 0.00 0.00 0.00 63 1007.0
20260505115405 18 202 0.0 0.0 0.00 0.00 0.00 63 1007.0
20260505114905 18 202 0.0 0.0 0.00 0.00 0.00 63 1007.0
20260505114405 17 180 0.0 0.0 0.00 0.00 0.00 63 1007.0
20260505113905 17 180 0.0 0.0 0.00 0.00 0.00 63 1007.0
20260505113405 17 180 0.0 0.0 0.00 0.00 0.00 63 1007.0
20260505112905 17 157 0.0 0.0 0.00 0.00 0.00 63 1007.0
20260505112405 17 157 0.0 0.0 0.00 0.00 0.00 63 1007.0
20260505111905 17 202 0.0 0.0 0.00 0.00 0.00 63 1007.0
20260505111405 17 180 0.0 0.0 0.00 0.00 0.00 62 1007.0
20260505110905 17 180 0.0 0.0 0.00 0.00 0.00 62 1007.0
20260505110405 17 180 0.0 0.0 0.00 0.00 0.00 62 1007.0
20260505101905 18 202 0.0 0.0 0.00 0.00 0.00 62 1007.0
20260505101405 18 225 0.0 0.0 0.00 0.00 0.00 63 1007.2
20260505100905 18 180 0.0 0.0 0.00 0.00 0.00 63 1007.2
20260505100405 18 180 0.0 0.0 0.00 0.00 0.00 64 1007.2
20260505095905 18 180 0.0 0.0 0.00 0.00 0.00 63 1007.2
20260505095405 18 180 0.0 0.0 0.00 0.00 0.00 62 1007.2
20260505094905 18 180 0.0 0.0 0.00 0.00 0.00 62 1007.2
20260505094405 18 180 4.8 0.0 0.00 0.00 0.00 62 1007.2
20260505093905 18 202 0.0 0.0 0.00 0.00 0.00 63 1007.0
20260505093405 18 225 0.0 0.0 0.00 0.00 0.00 62 1007.2
20260505092905 18 180 0.0 0.0 0.00 0.00 0.00 62 1007.2
20260505092405 18 180 0.0 0.0 0.00 0.00 0.00 61 1007.2
20260505091905 18 180 0.0 0.0 0.00 0.00 0.00 61 1007.2
20260505091405 18 202 0.0 0.0 0.00 0.00 0.00 61 1007.4
20260505090905 18 180 0.0 0.0 0.00 0.00 0.00 62 1007.5
20260505090405 18 180 0.0 0.0 0.00 0.00 0.00 62 1007.5
20260505085905 18 157 0.0 0.0 0.00 0.00 0.00 63 1007.5
20260505085405 18 157 0.0 0.0 0.00 0.00 0.00 63 1007.5
20260505084905 18 157 0.0 0.0 0.00 0.00 0.00 63 1007.7
20260505084405 18 157 0.0 0.0 0.00 0.00 0.00 63 1007.7
20260505083905 18 135 0.0 0.0 0.00 0.00 0.00 64 1007.7
20260505083405 18 112 0.0 0.0 0.00 0.00 0.00 64 1007.5
20260505082905 18 112 0.0 0.0 0.00 0.00 0.00 64 1007.7
20260505082405 18 67 0.0 0.0 0.00 0.00 0.00 65 1007.7
20260505081905 18 135 0.0 0.0 0.00 0.00 0.00 65 1007.7
20260505081405 17 135 0.0 0.0 0.00 0.00 0.00 67 1007.5
20260505080905 17 135 0.0 0.0 0.00 0.00 0.00 68 1007.7
20260505080405 17 135 0.0 0.0 0.00 0.00 0.00 69 1007.7
20260505075905 17 112 0.0 0.0 0.00 0.00 0.00 69 1007.9
20260505075405 16 112 0.0 0.0 0.00 0.00 0.00 68 1007.7
20260505074905 16 112 0.0 0.0 0.00 0.00 0.00 69 1008.0
20260505074405 16 112 0.0 0.0 0.00 0.00 0.00 69 1008.0
20260505073905 16 112 0.0 0.0 0.00 0.00 0.00 69 1008.0
20260505073405 16 112 0.0 0.0 0.00 0.00 0.00 70 1008.0
20260505072905 16 112 0.0 0.0 0.00 0.00 0.00 70 1008.0
20260505072405 16 112 0.0 0.0 0.00 0.00 0.00 71 1008.0
20260505071905 16 112 0.0 0.0 0.00 0.00 0.00 71 1008.0
20260505071405 15 112 0.0 0.0 0.00 0.00 0.00 71 1008.2
20260505070905 15 112 0.0 0.0 0.00 0.00 0.00 72 1008.2
20260505070405 15 112 0.0 0.0 0.00 0.00 0.00 72 1008.2
20260505065905 15 112 0.0 0.0 0.00 0.00 0.00 72 1008.2
20260505065405 15 112 0.0 0.0 0.00 0.00 0.00 72 1008.4
20260505064905 15 112 0.0 0.0 0.00 0.00 0.00 73 1008.4
20260505064405 14 112 0.0 0.0 0.00 0.00 0.00 73 1008.4
20260505063905 14 112 0.0 0.0 0.00 0.00 0.00 73 1008.4
20260505063405 14 112 0.0 0.0 0.00 0.00 0.00 73 1008.2
20260505062905 14 112 0.0 0.0 0.00 0.00 0.00 73 1008.2
20260505062405 14 112 0.0 0.0 0.00 0.00 0.00 73 1008.5
20260505061905 13 112 0.0 0.0 0.00 0.00 0.00 73 1008.5
20260505061405 13 112 0.0 0.0 0.00 0.00 0.00 74 1008.7
20260505060905 13 112 0.0 0.0 0.00 0.00 0.00 74 1008.7
20260505060405 13 112 0.0 0.0 0.00 0.00 0.00 74 1008.7
20260505055905 13 112 0.0 0.0 0.00 0.00 0.00 74 1008.7
20260505055405 13 112 0.0 0.0 0.00 0.00 0.00 74 1008.5
20260505054905 13 112 0.0 0.0 0.00 0.00 0.00 74 1008.7
20260505054405 13 112 0.0 0.0 0.00 0.00 0.00 74 1008.9
20260505053905 13 112 0.0 0.0 0.00 0.00 0.00 74 1008.9
20260505053405 13 112 0.0 0.0 0.00 0.00 0.00 74 1008.7
20260505052905 13 112 0.0 0.0 0.00 0.00 0.00 74 1008.9
20260505052405 13 45 0.0 0.0 0.00 0.00 0.00 74 1008.7
20260505051905 12 45 0.0 0.0 0.00 0.00 0.00 74 1008.7
20260505051405 12 45 0.0 0.0 0.00 0.00 0.00 74 1008.7
20260505050905 12 45 0.0 0.0 0.00 0.00 0.00 74 1008.5
20260505050405 12 180 0.0 0.0 0.00 0.00 0.00 75 1008.7
20260505041405 12 180 0.0 0.0 0.00 0.00 0.00 74 1008.7
20260505040905 13 180 0.0 0.0 0.00 0.00 0.00 73 1008.7
20260505040405 13 180 0.0 0.0 0.00 0.00 0.00 73 1008.7
20260505035905 13 180 0.0 0.0 0.00 0.00 0.00 73 1008.5
20260505035405 13 180 0.0 0.0 0.00 0.00 0.00 73 1008.7
20260505034905 13 180 0.0 0.0 0.00 0.00 0.00 73 1008.5
20260505034405 13 180 0.0 0.0 0.00 0.00 0.00 73 1008.7
20260505033905 13 180 0.0 0.0 0.00 0.00 0.00 73 1008.7
20260505033405 13 180 0.0 0.0 0.00 0.00 0.00 73 1008.5
20260505032905 13 180 0.0 0.0 0.00 0.00 0.00 73 1008.7
20260505032405 13 180 0.0 0.0 0.00 0.00 0.00 73 1008.5
20260505031905 13 180 0.0 0.0 0.00 0.00 0.00 73 1008.7
20260505031405 13 180 0.0 0.0 0.00 0.00 0.00 73 1008.7
20260505030905 13 180 0.0 0.0 0.00 0.00 0.00 73 1008.9
20260505030405 13 180 0.0 0.0 0.00 0.00 0.00 73 1009.0
20260505025905 13 180 0.0 0.0 0.00 0.00 0.00 73 1009.0
20260505025405 13 180 0.0 0.0 0.00 0.00 0.00 73 1009.0
20260505024905 13 180 0.0 0.0 0.00 0.00 0.00 73 1009.0
20260505024405 13 180 0.0 0.0 0.00 0.00 0.00 72 1009.0
20260505023905 13 180 0.0 0.0 0.00 0.00 0.00 72 1009.2
20260505023405 13 180 0.0 0.0 0.00 0.00 0.00 72 1009.2
20260505022905 13 180 0.0 0.0 0.00 0.00 0.00 72 1009.4
20260505022405 13 180 0.0 0.0 0.00 0.00 0.00 72 1009.4
20260505021905 13 180 0.0 0.0 0.00 0.00 0.00 72 1009.4
20260505021405 13 180 0.0 0.0 0.00 0.00 0.00 72 1009.4
20260505020905 13 180 0.0 0.0 0.00 0.00 0.00 72 1009.5
20260505020405 13 180 0.0 0.0 0.00 0.00 0.00 72 1009.5
20260505015905 13 180 0.0 0.0 0.00 0.00 0.00 71 1009.5
20260505015405 13 180 0.0 0.0 0.00 0.00 0.00 71 1009.7
20260505014905 13 180 0.0 0.0 0.00 0.00 0.00 71 1009.5